RH
47 49 49 43 39 40 39 39 41 44 46 52 50 38 37 39 36 30 20 14 10 7 6 6 6 6 6 6 6 6 6 6 5 5 5 5 5 4 4 5 5 5 6 7 7 7 7 7 6 6 7 7 8 8 8 9 9 10 16 19 16 16 14 12 12 12 12 12 12 11 12 15 16 17 17 18 19 17 17 17 17 17 17 18 17 17 17 17
47 50 51 45 42 42 41 41 42 44 43 46 46 40 38 35 30 23 17 12 8 6 6 6 6 6 6 7 7 7 6 5 5 5 6 6 5 4 5 6 6 6 6 6 6 6 7 7 7 7 7 8 8 8 8 9 9 11 16 17 14 14 12 11 12 11 11 12 11 12 13 14 16 17 16 18 20 18 18 17 16 16 16 16 15 16 16 16
49 51 51 46 43 43 42 42 46 45 40 43 43 38 34 28 23 18 14 10 6 5 5 5 6 6 7 7 7 7 7 6 4 5 5 5 5 4 5 5 6 7 7 7 6 7 7 7 8 8 8 9 8 8 9 10 10 10 13 15 13 12 11 11 11 11 11 11 10 12 13 14 15 15 16 18 19 19 19 17 16 15 15 14 14 14 14 14
50 50 50 48 44 42 42 43 47 46 41 43 40 34 29 22 19 16 11 8 6 6 5 6 6 6 7 7 7 7 7 6 5 5 5 5 5 5 5 5 6 7 7 7 6 7 7 8 8 8 8 8 8 9 10 10 11 10 11 14 12 11 12 11 11 11 11 10 10 10 13 15 14 13 15 17 20 20 18 16 15 14 13 13 13 13 13 13
49 49 50 49 44 42 43 45 47 46 43 44 39 30 23 18 17 13 8 6 6 6 6 6 5 6 6 7 7 7 8 8 6 5 5 5 5 5 5 5 5 6 7 7 7 7 7 8 8 8 8 9 9 11 10 9 10 11 11 12 11 11 12 11 10 11 10 10 10 10 13 16 14 14 15 16 20 20 16 15 14 13 14 14 13 13 14 14
50 48 49 48 46 45 47 47 47 45 44 44 38 26 19 17 14 8 5 5 6 7 7 6 5 5 5 6 6 7 8 8 6 5 5 5 5 5 5 5 5 6 6 7 7 7 8 8 8 9 9 10 11 12 11 9 9 11 11 10 11 10 10 10 10 11 10 10 10 11 13 14 16 17 16 15 18 17 15 15 14 14 14 15 15 15 15 16
52 49 47 46 45 48 48 48 48 45 43 44 34 21 17 15 9 5 4 5 6 7 7 6 5 6 5 5 5 5 6 7 6 5 5 5 5 5 5 5 5 5 6 6 7 8 8 8 9 8 10 12 11 11 11 9 9 12 12 10 10 10 9 11 11 11 10 10 11 11 12 14 16 18 17 16 16 16 15 15 15 15 15 16 16 16 17 18
51 49 45 43 44 46 45 47 50 45 43 40 27 17 15 11 6 4 4 4 6 7 7 6 6 7 7 7 6 5 6 6 6 5 6 6 5 5 6 5 5 5 6 7 7 8 9 9 9 8 11 13 10 11 11 10 11 13 12 10 10 10 10 11 12 12 10 11 11 11 13 15 16 17 17 17 17 17 17 17 16 16 16 17 17 17 18 19
47 46 44 43 45 44 42 46 50 46 43 32 18 15 13 8 5 4 4 4 6 6 6 6 5 7 8 8 7 6 6 7 6 5 6 5 5 5 6 5 6 6 6 7 7 8 8 9 9 9 11 11 10 10 10 12 13 12 11 10 10 11 10 11 12 12 11 11 11 13 15 16 15 16 18 17 17 18 18 18 18 18 18 18 18 18 19 20
42 42 43 43 44 44 43 46 47 45 38 23 15 15 9 5 5 4 4 5 5 6 6 5 6 7 7 6 6 6 6 6 6 6 6 5 6 5 6 6 6 6 7 7 8 8 9 9 10 10 10 10 10 10 11 12 13 12 11 11 11 11 11 12 12 13 12 12 12 14 16 15 16 17 18 17 17 18 18 19 18 18 18 18 18 19 20 21
41 41 43 44 46 47 45 45 45 42 29 17 14 12 6 5 5 4 5 5 6 6 5 5 6 6 5 5 5 6 6 6 6 6 6 6 6 6 6 6 7 7 8 8 9 10 10 9 10 11 11 11 10 10 11 11 12 12 12 13 12 11 13 13 13 14 13 13 12 14 16 16 17 18 18 18 18 18 18 19 19 19 19 19 19 19 20 21
44 44 43 45 48 48 48 48 44 32 19 15 13 7 4 5 4 5 6 6 6 6 6 6 5 5 5 5 6 7 6 7 7 7 6 6 6 6 7 7 7 8 8 9 9 10 10 10 10 11 12 12 11 13 11 11 12 12 14 16 15 15 16 14 14 15 14 13 13 14 17 21 20 19 18 18 18 18 18 19 19 19 19 19 19 19 20 21
50 47 43 45 47 48 53 49 35 22 15 14 9 5 5 4 5 6 6 6 6 5 6 6 5 5 5 6 7 7 7 7 7 7 7 7 7 7 7 8 9 9 9 10 10 10 10 10 11 11 12 12 13 14 12 11 11 12 15 16 17 19 20 16 15 15 14 14 14 13 18 23 21 19 18 18 19 18 18 19 19 20 20 20 20 20 20 20
53 50 45 47 48 50 50 38 24 16 14 10 6 5 5 5 6 6 6 6 6 6 7 6 6 5 5 6 7 7 7 7 7 7 7 7 7 8 8 9 10 10 10 10 11 11 10 10 11 11 12 12 12 12 13 13 13 15 19 19 20 21 20 18 17 15 15 15 14 16 20 23 22 20 19 19 19 19 19 20 20 21 21 21 21 20 20 20
55 55 52 48 46 44 36 25 18 15 11 7 5 5 5 6 7 7 6 6 6 7 6 6 7 6 6 6 7 7 7 7 7 7 8 8 8 9 9 10 11 11 11 11 11 12 11 10 10 11 13 12 13 16 18 18 18 20 21 22 23 21 19 20 17 15 16 15 15 18 23 24 22 21 19 19 19 19 19 20 21 22 22 22 21 21 21 20
55 59 55 44 38 33 24 19 15 12 8 6 5 5 6 8 7 7 6 6 7 7 6 6 6 7 7 7 7 7 7 7 7 8 9 9 9 9 9 10 11 11 11 12 11 12 12 11 11 12 13 14 17 21 24 24 25 25 22 22 22 20 20 21 18 16 16 15 16 19 22 23 23 21 20 20 20 20 20 21 22 23 24 23 22 22 21 21
53 56 50 37 29 25 20 15 10 8 7 6 6 6 7 8 7 7 6 6 7 6 7 7 6 7 7 7 7 7 8 8 8 8 10 10 10 10 10 10 10 11 11 11 11 11 11 12 13 13 14 17 18 22 27 25 25 26 24 23 23 19 19 22 21 18 17 18 19 20 22 24 24 23 22 21 21 20 21 22 23 24 25 25 24 23 23 22
47 48 43 32 24 21 17 11 8 8 7 7 8 8 8 8 7 6 6 7 7 7 8 7 8 9 7 7 8 8 8 9 8 9 10 10 11 11 11 11 11 11 11 11 11 10 12 12 14 15 17 19 19 20 23 22 22 25 25 25 25 22 20 22 22 19 20 21 20 22 25 25 24 24 23 22 22 21 22 23 25 25 26 26 25 24 24 23
39 36 32 27 22 19 14 10 9 8 7 8 9 9 9 8 7 7 7 8 8 9 9 8 9 10 8 8 8 8 9 9 9 9 10 11 11 12 12 12 12 11 12 13 12 12 13 14 16 18 20 20 20 20 20 19 22 24 25 25 26 24 22 23 22 20 22 22 22 24 26 26 26 26 25 24 23 22 23 24 26 26 27 27 26 26 25 24
33 28 25 22 17 14 11 10 9 8 8 9 9 10 10 8 8 8 7 8 8 8 9 8 8 8 8 8 8 9 9 9 10 9 10 11 11 12 12 12 12 13 14 16 15 13 13 17 19 19 19 19 20 21 21 20 22 24 25 25 25 25 23 22 21 22 22 23 25 26 26 27 27 28 26 25 24 23 24 25 26 28 28 28 27 26 26 27
28 25 23 17 12 10 10 9 8 8 9 9 10 11 11 9 9 9 8 8 8 8 8 8 8 8 9 9 9 9 9 9 10 10 11 11 12 13 13 13 14 15 16 16 15 14 14 17 19 17 17 18 20 23 23 22 23 23 24 24 25 26 23 22 23 25 24 25 28 28 28 29 29 29 28 26 26 25 25 26 27 28 29 29 29 28 28 30
24 21 18 12 10 11 9 9 8 9 9 9 10 10 10 9 8 9 8 9 9 8 8 8 8 9 9 10 9 9 9 10 10 11 11 12 12 14 14 15 16 16 16 16 17 18 17 17 18 17 18 21 22 23 22 22 24 25 25 25 26 26 25 25 25 26 25 26 29 29 30 32 30 29 28 28 28 26 26 27 28 29 30 31 30 30 31 33
20 16 13 11 11 10 8 8 8 9 9 9 9 8 8 8 8 8 8 10 10 9 9 9 9 9 9 10 11 10 10 11 12 11 12 13 13 15 16 17 19 18 17 18 19 18 17 17 16 16 19 22 23 23 23 23 24 25 25 25 25 25 26 28 26 26 27 28 31 29 31 34 30 28 29 29 29 28 28 28 28 30 31 32 32 32 33 33
14 11 11 10 9 8 8 9 9 10 9 8 8 8 9 8 9 10 9 11 12 11 10 10 10 10 10 11 11 12 11 12 13 13 13 14 14 15 16 17 22 21 19 20 19 18 17 16 16 18 21 23 23 25 25 23 23 26 25 23 23 25 26 27 28 29 29 31 31 29 31 34 31 30 31 31 31 30 30 30 31 32 33 34 34 34 34 32
11 11 10 9 9 8 8 9 9 10 9 9 8 8 8 8 9 10 11 13 13 12 12 11 10 10 11 11 12 13 13 13 14 13 14 14 15 17 17 17 20 22 22 22 22 20 19 16 16 20 23 25 25 24 23 22 24 27 27 24 23 25 26 28 30 31 32 33 32 31 35 37 32 32 33 34 34 33 33 33 33 34 34 34 35 35 35 32
12 12 11 10 9 9 10 11 10 10 10 9 8 9 9 8 9 9 13 18 16 13 13 13 12 11 11 12 12 13 14 15 14 13 14 15 15 17 19 19 19 21 21 22 22 20 20 19 20 23 23 25 26 23 22 23 25 27 26 24 25 26 27 29 30 32 35 35 31 32 37 37 33 33 34 35 36 35 35 35 35 34 34 34 36 37 35 32
12 12 10 10 9 9 11 11 9 9 10 9 8 9 9 9 9 8 14 21 17 13 13 12 11 12 12 12 12 14 15 15 14 14 14 15 15 16 19 22 22 21 20 21 21 20 21 21 23 26 24 23 24 23 23 23 24 26 24 24 27 27 27 29 30 33 36 35 33 34 34 34 34 34 35 36 37 38 38 38 37 35 35 36 38 39 36 33
11 10 9 8 8 9 10 9 9 9 9 9 8 9 9 9 9 10 17 19 14 12 12 12 11 11 13 13 12 14 14 14 15 15 14 15 15 15 18 21 23 23 22 22 21 19 21 23 24 25 24 22 21 20 23 23 23 27 27 27 28 27 28 31 32 34 36 36 38 37 33 36 38 35 36 38 37 40 40 39 40 37 38 39 40 40 37 33
9 8 8 7 7 8 9 9 8 8 8 8 8 9 9 8 9 13 17 16 13 13 13 13 12 11 14 14 13 13 14 15 15 15 15 15 15 16 18 19 21 23 22 24 26 24 21 21 23 25 23 21 21 21 24 24 24 26 28 29 28 28 29 31 33 34 35 39 41 37 34 39 42 35 37 40 40 42 42 42 43 41 42 43 42 42 39 35
7 7 7 7 7 7 8 8 8 8 8 7 8 9 9 10 14 17 15 13 14 15 13 13 12 12 15 16 15 15 16 16 15 16 15 14 15 16 18 18 20 24 24 26 29 26 22 22 24 24 22 21 21 23 24 24 25 25 28 29 28 29 29 31 35 33 35 44 44 37 35 40 45 40 37 41 44 45 46 46 47 45 44 45 43 42 39 35
6 7 7 7 7 7 7 8 7 8 7 7 9 9 10 14 17 18 14 12 14 14 14 15 14 15 18 18 16 16 18 17 15 17 18 17 17 17 19 20 22 26 29 30 29 26 26 28 27 24 21 22 23 24 25 25 25 25 28 30 29 31 30 31 37 36 40 49 44 36 36 40 47 44 38 42 47 49 50 50 50 48 45 44 44 42 39 36
6 7 7 7 7 7 7 7 8 8 8 9 9 10 14 16 15 15 14 14 14 14 15 16 16 17 18 19 17 18 19 16 15 19 21 22 22 21 21 23 25 26 28 29 28 28 29 30 28 25 22 23 25 26 27 28 29 28 29 31 33 35 36 37 43 43 44 47 41 37 40 42 45 41 39 44 48 50 51 48 48 48 45 45 44 41 39 38
6 7 7 7 7 7 7 7 8 9 9 10 10 12 18 18 15 15 15 14 15 15 15 16 17 17 18 17 17 19 18 15 17 19 19 22 25 24 23 25 26 26 26 27 27 27 31 30 27 27 25 23 24 26 26 27 30 29 28 32 37 39 41 45 47 46 45 43 38 38 44 47 43 39 41 45 48 48 48 46 47 47 46 46 44 41 41 40
6 7 6 6 7 6 7 8 8 10 9 9 12 15 15 14 15 16 15 15 16 17 17 18 17 17 17 15 15 18 18 17 20 20 20 23 24 23 24 25 26 27 29 29 27 27 30 30 28 28 26 24 26 27 26 28 30 30 30 35 40 40 42 48 49 49 48 43 39 39 46 50 44 41 44 44 45 47 46 47 48 47 48 47 45 44 44 42
6 7 6 7 7 7 7 8 8 9 8 10 16 18 14 13 15 15 15 16 17 18 19 19 17 17 17 17 18 19 18 18 20 21 22 23 22 21 22 24 26 29 31 30 28 28 29 30 29 27 25 25 27 27 28 30 31 32 33 36 40 41 42 47 48 46 46 48 48 45 47 48 42 42 45 44 46 48 48 50 50 50 50 49 48 48 46 43
6 6 7 8 8 8 8 7 9 9 8 14 18 18 18 16 14 16 18 17 17 19 19 17 17 17 16 17 19 18 18 19 19 19 20 21 21 21 23 25 25 28 31 30 29 30 30 31 30 28 27 27 28 28 29 30 30 33 36 37 38 39 40 45 48 48 51 56 55 46 44 45 43 44 44 44 48 49 50 54 53 52 51 49 50 50 47 44
6 6 8 8 8 9 8 7 9 8 9 16 18 17 19 16 14 19 20 16 16 19 17 15 15 16 15 16 18 18 17 18 18 18 18 20 21 21 24 26 25 26 30 32 32 31 31 33 32 31 31 29 29 30 30 29 30 34 37 37 38 40 43 46 48 53 61 64 55 46 47 49 48 49 45 43 48 51 53 56 54 53 52 51 52 50 48 46
7 7 8 9 9 8 8 8 9 9 10 18 18 15 16 15 14 19 20 16 16 16 15 15 16 15 14 15 16 16 17 17 17 18 18 20 20 21 24 26 26 26 27 30 33 33 34 35 33 33 34 32 31 32 33 32 31 33 36 38 41 46 50 50 52 58 65 67 60 50 51 53 54 54 49 46 49 51 53 56 54 53 54 54 53 51 50 48
7 9 9 9 9 9 9 9 8 10 13 17 18 15 16 19 18 17 19 18 17 15 14 15 15 15 14 16 16 16 17 17 16 17 18 19 19 21 23 24 26 28 27 30 33 33 36 36 34 35 34 33 33 34 37 36 34 34 36 38 42 47 51 52 55 60 64 71 72 61 53 54 55 55 51 47 50 52 53 55 55 55 56 56 55 54 52 50
8 11 10 8 10 9 9 9 9 14 18 17 18 17 18 21 20 17 18 19 17 15 15 15 15 14 16 17 17 18 19 18 17 18 18 20 21 22 24 25 27 29 28 29 31 33 36 36 36 37 35 35 36 35 36 38 37 39 40 40 42 47 51 51 54 58 61 70 80 75 63 53 48 49 48 48 50 52 53 54 55 57 58 59 59 57 55 52
9 12 11 8 10 9 9 10 11 17 21 17 17 20 20 21 21 18 17 18 18 16 15 17 17 16 17 18 17 18 19 17 18 19 19 20 21 22 26 28 28 29 29 30 31 34 35 35 37 40 37 37 37 35 35 37 39 42 43 45 47 52 55 54 56 60 61 65 72 75 68 53 43 45 47 48 51 51 51 53 55 59 60 61 61 60 57 54
9 14 12 8 9 9 10 14 15 18 21 18 17 20 21 20 20 18 15 16 18 16 16 18 19 19 19 19 19 20 20 18 18 19 20 22 24 26 30 30 28 28 30 32 33 33 34 36 39 40 39 38 37 35 35 37 39 40 42 43 48 54 55 55 61 62 61 64 66 70 70 53 42 46 47 47 49 49 51 54 57 60 61 62 63 61 59 57
9 12 10 7 9 9 11 16 18 20 22 20 19 19 20 20 18 18 18 17 18 17 17 20 20 18 18 19 20 20 19 19 19 20 21 24 28 31 33 30 27 28 30 32 33 32 35 38 39 40 41 39 37 36 35 37 38 39 42 43 47 54 55 56 62 61 62 65 64 69 72 54 41 45 45 44 47 49 52 55 57 61 62 62 63 62 61 60
8 9 9 8 8 9 11 16 20 23 22 20 19 18 19 18 18 20 21 19 18 17 19 21 20 16 18 21 20 20 20 18 19 21 21 24 29 32 33 30 28 30 31 33 35 33 35 38 38 41 44 41 38 39 39 41 41 40 44 46 47 54 57 56 58 58 62 63 60 69 70 51 40 46 45 44 48 50 53 55 56 59 62 62 63 62 63 62
9 10 10 8 8 8 11 17 21 24 24 21 19 19 19 18 18 20 21 20 18 17 19 20 19 18 22 21 20 22 21 19 20 21 22 26 31 32 30 29 30 31 31 32 33 33 38 41 39 43 48 48 47 46 44 46 46 43 44 45 47 53 56 56 59 62 63 60 58 65 62 45 38 42 43 45 49 49 52 54 54 56 59 62 63 63 63 63
10 13 13 11 8 8 11 14 15 19 24 22 18 18 21 20 19 20 20 18 17 17 18 19 19 19 22 22 21 22 23 22 22 21 22 27 32 34 32 29 31 33 33 32 30 33 40 43 41 43 47 48 48 47 45 46 45 44 45 46 49 54 55 57 63 63 62 60 58 56 54 47 40 39 40 44 47 48 50 52 53 53 56 60 62 63 64 64
9 13 15 13 10 10 12 14 13 15 20 19 16 17 20 22 21 20 20 19 19 18 18 18 19 19 20 23 23 23 24 25 23 22 23 27 33 37 35 32 32 34 35 33 31 35 41 42 42 44 45 45 45 44 45 47 45 44 45 47 50 55 56 58 60 57 57 60 55 47 49 53 45 38 40 44 45 46 48 49 51 50 52 56 60 62 64 66
9 11 12 12 13 14 14 13 14 15 16 17 17 19 21 22 22 20 19 19 20 19 18 19 20 22 24 24 22 23 25 24 24 24 24 26 31 35 35 35 36 36 35 34 33 36 40 42 43 44 44 45 46 45 45 46 46 45 45 46 49 55 57 56 54 54 55 58 53 45 47 52 46 39 41 44 46 46 46 47 48 47 48 52 56 60 64 67
9 9 9 10 13 15 15 14 14 15 16 17 19 20 21 21 22 22 20 19 21 21 19 20 22 24 27 25 22 23 24 21 22 25 25 27 29 32 35 37 38 39 38 35 34 35 38 42 45 44 44 45 45 46 47 48 48 47 45 45 47 51 55 54 52 53 54 54 50 47 48 48 43 41 43 44 46 46 45 45 45 45 46 50 54 57 61 66
8 9 9 9 11 13 15 15 15 15 16 16 17 18 20 22 22 22 20 20 21 21 20 22 24 26 27 24 22 23 24 22 22 24 26 27 28 30 33 35 40 43 40 37 36 35 37 43 44 42 42 43 43 46 49 49 50 47 44 44 46 48 51 52 53 54 55 54 51 51 54 49 41 42 45 45 46 46 45 44 43 43 45 48 51 54 57 62
8 8 7 9 12 13 14 14 15 17 17 15 16 18 19 22 23 22 21 21 21 22 22 22 25 27 25 24 24 24 24 24 23 22 24 24 25 27 29 30 37 43 42 38 39 38 38 43 45 44 43 41 42 46 47 47 49 48 45 46 46 48 49 50 52 55 55 54 53 54 56 48 41 43 46 45 46 47 46 45 43 43 44 46 48 51 55 60
7 7 7 10 12 13 14 14 14 15 15 16 18 19 18 20 20 18 18 20 21 22 23 22 24 26 26 26 26 25 23 23 22 22 23 23 24 26 27 28 32 38 41 41 40 40 41 43 46 45 44 43 43 46 46 47 50 49 47 48 46 46 47 47 48 52 52 52 54 54 50 44 43 46 46 45 46 46 46 46 44 43 43 43 45 49 53 58